Location: Niedergestelen
(46.3129°N, 7.7822°E)
Time: 19:29:26
(UTC+00:00)

BREEZE-M DEB (TANK) - Pass Details

Date: 01 December 2020
Orbit: 322 x 13923 km, 49.6° (Epoch: 27 January)

Event Time Altitude Azimuth Distance (km) Brightness Sun altitude
Rises 17:59:49 0° 237° (WSW) 6,509 9.4 -22.7°
Reaches altitude 10° 18:05:49 10° 236° (WSW) 3,931 8.0 -23.7°
Enters shadow 18:13:14 64° 173° (S) 734 3.3 -25.0°
